User: anonymous   Login
Location: Ostrava
(49.8330°N, 18.2830°E)
Time: 08:42:42
(UTC+01:00)
Language:

Cosmos 2219 Rocket - Orbit

View from above orbital plane
View from above orbital plane
View from above satellite
View from above satellite

Ground track
Ground track

The orbit data is extracted from the following two-line orbital elements,

1 22220U 92076B   16039.88895889 -.00000028  00000-0  10070-4 0  9997
2 22220  71.0009  19.6947 0014939 300.5777  74.8943 14.16391568200784
Epoch (UTC): 08 February 2016 21:20:06
Eccentricity: 0.0014939
inclination: 71.0009°
perigee height: 827 km
apogee height: 848 km
right ascension of ascending node: 19.6947°
argument of perigee: 300.5777°
revolutions per day: 14.16391568
mean anomaly at epoch: 74.8943°
orbit number at epoch: 20078

The dashed part of the orbit path shows where the satellite is in the earth's shadow,  

DLR